When you browse on this site, cookies collect data to enhance your experience and personalize the content and advertising you see.
Visit our Privacy Policy to learn more. By continuing to use the site, you agree to this use of cookies and data.
  • In Österreich
  • Länderverzeichnis
  • Für 7 Tage
  • Wassertemperatur
  • Wetterkarte
  • News
  • Widgets
  • user-avatar
    Anmelden

    Stündliche Wetter Lezhe

    Heute, 28 Januar, Dienstag

    Zeit Temperatur Niederschläge Wind Luftdruck Luftfeuchtigkeit
    00:00 +8°C° 0 mm 1 m/S 738 mmHg 94%
    01:00 +7°C° 0 mm 2 m/S 738 mmHg 95%
    02:00 +8°C° 0.1 mm 1 m/S 738 mmHg 94%
    03:00 +8°C° 0.1 mm 1 m/S 738 mmHg 93%
    04:00 +8°C° 0.1 mm 1 m/S 738 mmHg 92%
    05:00 +8°C° 0.1 mm 1 m/S 738 mmHg 92%
    06:00 +8°C° 0.1 mm 1 m/S 738 mmHg 92%
    07:00 +7°C° 0 mm 2 m/S 738 mmHg 91%
    08:00 +8°C° 0.1 mm 2 m/S 738 mmHg 88%
    09:00 +9°C° 0.1 mm 2 m/S 738 mmHg 85%
    10:00 +9°C° 0.1 mm 3 m/S 738 mmHg 82%
    11:00 +9°C° 0.1 mm 3 m/S 737 mmHg 83%
    12:00 +10°C° 0.1 mm 3 m/S 737 mmHg 83%
    13:00 +10°C° 0.1 mm 4 m/S 737 mmHg 84%
    14:00 +10°C° 0.2 mm 4 m/S 736 mmHg 85%
    15:00 +8°C° 0.2 mm 4 m/S 736 mmHg 85%
    16:00 +8°C° 0.2 mm 4 m/S 735 mmHg 86%
    17:00 +8°C° 0.4 mm 4 m/S 735 mmHg 87%
    18:00 +8°C° 0.4 mm 4 m/S 735 mmHg 88%
    19:00 +8°C° 0.4 mm 4 m/S 736 mmHg 89%
    20:00 +8°C° 0.5 mm 5 m/S 735 mmHg 89%
    21:00 +8°C° 0.5 mm 5 m/S 735 mmHg 88%
    22:00 +8°C° 0.5 mm 5 m/S 735 mmHg 88%
    23:00 +8°C° 0.4 mm 5 m/S 734 mmHg 88%

    Morgen, 29 Januar, Mittwoch

    Zeit Temperatur Niederschläge Wind Luftdruck Luftfeuchtigkeit
    00:00 +8°C° 0.4 mm 5 m/S 734 mmHg 89%
    01:00 +8°C° 0.4 mm 5 m/S 734 mmHg 89%
    02:00 +8°C° 0.4 mm 5 m/S 733 mmHg 88%
    03:00 +8°C° 0.4 mm 6 m/S 733 mmHg 87%
    04:00 +8°C° 0.4 mm 6 m/S 732 mmHg 86%
    05:00 +8°C° 1 mm 6 m/S 732 mmHg 87%
    06:00 +8°C° 1 mm 6 m/S 732 mmHg 88%
    07:00 +8°C° 1 mm 7 m/S 732 mmHg 89%
    08:00 +9°C° 0.8 mm 6 m/S 733 mmHg 89%
    09:00 +9°C° 0.8 mm 5 m/S 733 mmHg 88%
    10:00 +11°C° 0.8 mm 4 m/S 733 mmHg 88%
    11:00 +11°C° 0.4 mm 4 m/S 733 mmHg 83%
    12:00 +11°C° 0.4 mm 4 m/S 733 mmHg 77%
    13:00 +12°C° 0.4 mm 4 m/S 733 mmHg 72%
    14:00 +11°C° 0.6 mm 3 m/S 733 mmHg 75%
    15:00 +10°C° 0.6 mm 3 m/S 733 mmHg 79%
    16:00 +10°C° 0.6 mm 3 m/S 733 mmHg 82%
    17:00 +9°C° 0.5 mm 2 m/S 733 mmHg 84%
    18:00 +9°C° 0.5 mm 2 m/S 734 mmHg 86%
    19:00 +9°C° 0.5 mm 2 m/S 734 mmHg 88%
    20:00 +8°C° 0.7 mm 2 m/S 735 mmHg 89%
    21:00 +8°C° 0.7 mm 2 m/S 735 mmHg 90%
    22:00 +9°C° 0.7 mm 1 m/S 736 mmHg 91%
    23:00 +9°C° 0.1 mm 1 m/S 736 mmHg 90%

    übermorgen, 30 Januar, Donnerstag

    Zeit Temperatur Niederschläge Wind Luftdruck Luftfeuchtigkeit
    00:00 +8°C° 0.1 mm 1 m/S 736 mmHg 90%
    01:00 +8°C° 0.1 mm 1 m/S 736 mmHg 89%
    02:00 +8°C° 0.2 mm 1 m/S 737 mmHg 90%
    03:00 +7°C° 0.2 mm 1 m/S 737 mmHg 90%
    04:00 +7°C° 0.2 mm 1 m/S 737 mmHg 90%
    05:00 +7°C° 0.1 mm 1 m/S 738 mmHg 89%
    06:00 +6°C° 0.1 mm 2 m/S 738 mmHg 89%
    07:00 +5°C° 0.1 mm 2 m/S 739 mmHg 88%
    08:00 +6°C° 0 mm 2 m/S 739 mmHg 83%
    09:00 +8°C° 0 mm 2 m/S 740 mmHg 77%
    10:00 +10°C° 0 mm 1 m/S 740 mmHg 71%
    11:00 +11°C° 0 mm 1 m/S 740 mmHg 66%
    12:00 +11°C° 0 mm 1 m/S 740 mmHg 61%
    13:00 +12°C° 0 mm 1 m/S 740 mmHg 56%
    14:00 +12°C° 0 mm 1 m/S 740 mmHg 59%
    15:00 +11°C° 0 mm 1 m/S 740 mmHg 63%
    16:00 +11°C° 0 mm 1 m/S 740 mmHg 66%
    17:00 +10°C° 0 mm 1 m/S 740 mmHg 69%
    18:00 +9°C° 0 mm 1 m/S 740 mmHg 72%
    19:00 +8°C° 0 mm 1 m/S 740 mmHg 75%
    20:00 +8°C° 0 mm 1 m/S 740 mmHg 74%
    21:00 +7°C° 0 mm 1 m/S 740 mmHg 74%
    22:00 +6°C° 0 mm 2 m/S 741 mmHg 74%
    23:00 +7°C° 0 mm 1 m/S 740 mmHg 71%

    31 Januar, Freitag

    Zeit Temperatur Niederschläge Wind Luftdruck Luftfeuchtigkeit
    00:00 +7°C° 0 mm 1 m/S 740 mmHg 68%
    01:00 +7°C° 0 mm 1 m/S 740 mmHg 65%
    02:00 +7°C° 0 mm 1 m/S 740 mmHg 64%
    03:00 +6°C° 0 mm 1 m/S 739 mmHg 63%
    04:00 +6°C° 0 mm 1 m/S 739 mmHg 62%
    05:00 +6°C° 0 mm 1 m/S 739 mmHg 62%
    06:00 +6°C° 0 mm 1 m/S 739 mmHg 62%
    07:00 +6°C° 0 mm 1 m/S 739 mmHg 62%
    08:00 +7°C° 0 mm 1 m/S 739 mmHg 61%
    09:00 +9°C° 0 mm 1 m/S 740 mmHg 61%
    10:00 +10°C° 0 mm 1 m/S 740 mmHg 60%
    11:00 +10°C° 0 mm 1 m/S 739 mmHg 65%
    12:00 +10°C° 0 mm 1 m/S 739 mmHg 69%
    13:00 +9°C° 0 mm 1 m/S 739 mmHg 73%
    14:00 +9°C° 0 mm 1 m/S 739 mmHg 76%
    15:00 +9°C° 0 mm 1 m/S 739 mmHg 79%
    16:00 +9°C° 0 mm 1 m/S 739 mmHg 82%
    17:00 +9°C° 0 mm 1 m/S 739 mmHg 83%
    18:00 +9°C° 0 mm 1 m/S 739 mmHg 85%
    19:00 +9°C° 0 mm 1 m/S 739 mmHg 86%
    20:00 +9°C° 0 mm 1 m/S 739 mmHg 87%
    21:00 +9°C° 0 mm 1 m/S 740 mmHg 87%
    22:00 +9°C° 0 mm 1 m/S 740 mmHg 88%
    23:00 +9°C° 0 mm 1 m/S 740 mmHg 88%

    1 Februar, Samstag

    Zeit Temperatur Niederschläge Wind Luftdruck Luftfeuchtigkeit
    00:00 +9°C° 0 mm 1 m/S 740 mmHg 87%
    01:00 +9°C° 0 mm 1 m/S 740 mmHg 87%
    02:00 +9°C° 0 mm 1 m/S 740 mmHg 87%
    03:00 +9°C° 0 mm 1 m/S 740 mmHg 87%
    04:00 +9°C° 0 mm 1 m/S 740 mmHg 87%
    05:00 +9°C° 0 mm 1 m/S 740 mmHg 87%
    06:00 +9°C° 0 mm 1 m/S 740 mmHg 87%
    07:00 +9°C° 0 mm 1 m/S 740 mmHg 86%
    08:00 +10°C° 0 mm 1 m/S 740 mmHg 83%
    09:00 +11°C° 0 mm 1 m/S 740 mmHg 79%
    10:00 +11°C° 0 mm 0 m/S 740 mmHg 75%
    11:00 +13°C° 0 mm 1 m/S 740 mmHg 73%
    12:00 +13°C° 0 mm 1 m/S 739 mmHg 71%
    13:00 +14°C° 0 mm 1 m/S 739 mmHg 69%
    14:00 +13°C° 0 mm 1 m/S 738 mmHg 72%
    15:00 +13°C° 0 mm 1 m/S 738 mmHg 76%
    16:00 +12°C° 0 mm 1 m/S 738 mmHg 79%
    17:00 +11°C° 0 mm 1 m/S 738 mmHg 84%
    18:00 +9°C° 0 mm 0 m/S 739 mmHg 88%
    19:00 +8°C° 0 mm 0 m/S 739 mmHg 92%
    20:00 +8°C° 0 mm 0 m/S 739 mmHg 92%
    21:00 +8°C° 0 mm 0 m/S 739 mmHg 92%
    22:00 +9°C° 0 mm 1 m/S 739 mmHg 92%
    23:00 +9°C° 0 mm 1 m/S 739 mmHg 91%

    2 Februar, Sonntag

    Zeit Temperatur Niederschläge Wind Luftdruck Luftfeuchtigkeit
    00:00 +9°C° 0 mm 1 m/S 739 mmHg 91%
    01:00 +8°C° 0 mm 1 m/S 739 mmHg 90%
    02:00 +8°C° 0 mm 1 m/S 739 mmHg 90%
    03:00 +8°C° 0 mm 1 m/S 739 mmHg 89%
    04:00 +8°C° 0 mm 1 m/S 739 mmHg 89%
    05:00 +8°C° 0 mm 1 m/S 739 mmHg 88%
    06:00 +8°C° 0 mm 1 m/S 739 mmHg 88%
    07:00 +8°C° 0 mm 1 m/S 739 mmHg 87%
    08:00 +9°C° 0 mm 1 m/S 740 mmHg 83%
    09:00 +11°C° 0 mm 1 m/S 740 mmHg 79%
    10:00 +11°C° 0 mm 0 m/S 740 mmHg 75%
    11:00 +13°C° 0 mm 1 m/S 740 mmHg 72%
    12:00 +14°C° 0 mm 1 m/S 740 mmHg 69%
    13:00 +14°C° 0 mm 2 m/S 741 mmHg 66%
    14:00 +14°C° 0 mm 2 m/S 741 mmHg 70%
    15:00 +13°C° 0 mm 2 m/S 741 mmHg 73%
    16:00 +13°C° 0 mm 1 m/S 741 mmHg 77%
    17:00 +12°C° 0 mm 1 m/S 742 mmHg 80%
    18:00 +10°C° 0 mm 2 m/S 742 mmHg 82%
    19:00 +9°C° 0 mm 2 m/S 743 mmHg 85%
    20:00 +9°C° 0 mm 2 m/S 743 mmHg 82%
    21:00 +8°C° 0 mm 2 m/S 743 mmHg 79%
    22:00 +9°C° 0 mm 1 m/S 743 mmHg 77%
    23:00 +9°C° 0 mm 1 m/S 743 mmHg 75%
    Mehr zeigen